User: anonymous   Login
Location: Oshawa
(43.9000°N, 78.8670°W)
Time: 04:49:33
(UTC-04:00)
Language:

CARTOSAT-1 - Orbit

View from above orbital plane
View from above orbital plane
View from above satellite
View from above satellite

Ground track
Ground track

The orbit data is extracted from the following two-line orbital elements,

1 28649U 05017A   16146.84618609  .00000311  00000-0  44357-4 0  9994
2 28649  97.8996 220.3659 0001144 173.8820 186.2408 14.83432632598552
Epoch (UTC): 25 May 2016 20:18:30
Eccentricity: 0.0001144
inclination: 97.8996°
perigee height: 618 km
apogee height: 619 km
right ascension of ascending node: 220.3659°
argument of perigee: 173.8820°
revolutions per day: 14.83432632
mean anomaly at epoch: 186.2408°
orbit number at epoch: 59855

The dashed part of the orbit path shows where the satellite is in the earth's shadow,  

DLR